Regional Weather Roundup
Issued by NWS

Home | Current Version | Previous Version | Graphics & Text | Print | Product List | Glossary On
Versions: 1 2 3 4 5 6 7 8 9 10 11 12 13 14 15 16 17 18 19 20 21 22 23 24 25 26 27 28 29 30 31 32 33 34 35 36 37 38 39 40 41 42 43 44 45 46 47 48 49 50
000
ASUS43 KMPX 030001
RWRMN
WEATHER ROUNDUP FOR MINNESOTA
NATIONAL WEATHER SERVICE TWIN CITIES/CHANHASSEN MN
700 PM CDT TUE SEP 02 2014


NOTE: "FAIR" INDICATES FEW OR NO CLOUDS BELOW 12,000 FEET WITH NO
SIGNIFICANT WEATHER AND/OR OBSTRUCTIONS TO VISIBILITY. N/A MEANS
CURRENT SKY AND/OR WEATHER CONDITIONS ARE NOT AVAILABLE.

MNZ060>063-068>070-030100-
   Twin Cities Metro

CITY           SKY/WX    TMP DP  RH WIND       PRES   REMARKS
TWIN CITIES    PTCLDY    76  51  41 SW8       29.86F
6HR MIN TEMP:  75; 6HR MAX TEMP:  78;

ST PAUL        CLEAR     74  53  48 SW5       29.86F
CRYSTAL        CLEAR     76  52  43 SW8       29.85F
LAKEVILLE      CLEAR     72  57  60 CALM      29.88F
EDEN PRAIRIE   CLEAR     75  54  47 SW6       29.86F
6HR MIN TEMP:  75; 6HR MAX TEMP:  79;

SOUTH ST PAUL  CLEAR     76  52  43 SW9       29.87S
LAKE ELMO      FAIR      70  54  56 SW5       29.88F
$$
MNZ001>005-007-008-013>017-022>024-027-028-030100-
   Northwest Minnesota

CITY           SKY/WX    TMP DP  RH WIND       PRES   REMARKS
BEMIDJI        MOCLDY    73  53  50 SW10      29.74F
HALLOCK        MOSUNNY   63  59  88 SE7       29.66F
ROSEAU         MOCLDY    57  54  88 SE6       29.72F
WARROAD        LGT RAIN  59  55  88 S8        29.72F
THIEF RVR FALL PTCLDY    73  57  56 SW14G20   29.68F
CROOKSTON      MOSUNNY   75  59  57 SW8       29.69F
FOSSTON        PTCLDY    73  55  53 SW12G17   29.73F
DETROIT LAKES  CLEAR     73  52  46 SW9G16    29.78S
MOORHEAD       SUNNY     75  57  53 SW9       29.74S
PARK RAPIDS    CLEAR     72  53  51 SW10      29.77F
MAHNOMEN       FAIR      72  55  55 SW12      29.74F
$$
MNZ006-009>011-018-025>026-030100-
   North Central Minnesota

CITY           SKY/WX    TMP DP  RH WIND       PRES   REMARKS
BAUDETTE       LGT RAIN  65  55  70 NW12G20   29.74R
FLAG ISLAND    MOCLDY    66  54  63 S9        29.69F
INTL FALLS     MOCLDY    65  53  65 CALM      29.73F
6HR MIN TEMP:  65; 6HR MAX TEMP:  73;

WASKISH        MOCLDY    68  55  64 CALM      29.73F
BIG FORK       CLEAR     66  57  72 SE3       29.76F
LONGVILLE      CLEAR     72  55  56 S5        29.78S
GRAND RAPIDS   CLEAR     70  52  52 S6        29.79S
CRANE LAKE     PTCLDY    63  52  67 S3        29.78F
ORR            PTCLDY    63  50  63 SE5       29.75F
COOK           CLEAR     63  55  77 SE3       29.79S
WALKER         FAIR      71  53  53 SW6       29.76F
$$
MNZ012-019>021-037-030100-
   Northeast Minnesota

CITY           SKY/WX    TMP DP  RH WIND       PRES   REMARKS
DULUTH         MOCLDY    62  52  69 CALM      29.82F
6HR MIN TEMP:  61; 6HR MAX TEMP:  76;

ELY            MOCLDY    59  54  82 S6        29.80S
HIBBING        PTCLDY    63  57  81 S5        29.80F
EVELETH        PTCLDY    59  55  88 CALM      29.82S
DULUTH HARBOR  CLOUDY    64  57  77 N10       29.82R
TWO HARBORS    MOCLDY    57  52  82 N5        29.80F
SILVER BAY     CLOUDY    55  55 100 CALM      29.82F
GRAND MARAIS     N/A     60  56  86 W7        29.76S
G MARAIS ARPRT CLOUDY    61  48  63 SW7       29.81S
$$
MNZ029>031-032-039>041-046>048-054>057-064-030100-
   West Central Minnesota

CITY           SKY/WX    TMP DP  RH WIND       PRES   REMARKS
FERGUS FALLS   PTCLDY    72  54  53 S7        29.78S
WHEATON        PTCLDY    72  55  56 S8        29.81F
MORRIS         PTCLDY    75  57  53 SW9       29.82S
ALEXANDRIA     PTCLDY    72  57  59 SW9       29.84F
ELBOW LAKE     FAIR      73  60  64 S8        29.81S
WADENA         CLEAR     72  55  56 SW10G17   29.79S
GLENWOOD       PTCLDY    73  57  56 S8        29.85S
APPLETON       PTCLDY    75  55  50 SW7       29.84S
BENSON         PTCLDY    73  57  56 SW7       29.84S
ORTONVILLE     PTCLDY    73  57  56 S6        29.83S
MADISON        PTCLDY    73  61  64 SW6       29.84F
WILLMAR        FAIR      72  57  60 SW5       29.87S
$$
MNZ033>034-036-042>043-049>051-058-059-030100-
   Central Minnesota

CITY           SKY/WX    TMP DP  RH WIND       PRES   REMARKS
ST CLOUD       CLEAR     75  55  49 SW7       29.84F
6HR MIN TEMP:  75; 6HR MAX TEMP:  80;

SAUK CENTRE    FAIR      70  57  64 SW6       29.84
PAYNESVILLE    HVY RAIN  72  54  53 S8        29.85F
AITKIN         CLEAR     73  55  53 SW6       29.80S
PINE RIVER     CLEAR     72  55  56 S6        29.83S
BRAINERD       CLEAR     71  54  54 SW10      29.81F
STAPLES        CLEAR     72  54  53 S8        29.80F
LONG PRAIRIE   FAIR      70  54  56 S7        29.84S
LITTLE FALLS   CLEAR     72  54  53 S8        29.83S
LITCHFIELD     PTCLDY    73  57  56 CALM      29.87S
BUFFALO        CLEAR     74  54  49 S7        29.87F
MAPLE LAKE     CLEAR     73  59  59 CALM      29.86F
$$
MNZ037-044-045-052-053-030100-
   East Central Minnesota

CITY           SKY/WX    TMP DP  RH WIND       PRES   REMARKS
PRINCETON      CLEAR     75  54  46 SW5       29.85F
MORA           CLEAR     70  52  52 SW6       29.85F
CAMBRIDGE      CLEAR     75  55  50 S5        29.83F
RUSH CITY      CLEAR     72  53  50 SW3       29.85F
MOOSE LAKE     CLEAR     70  52  52 SW6       29.81S
HINCKLEY       FAIR      72  55  56 SW8       29.84S
CLOQUET        CLEAR     72  50  46 SW7       29.82S
MCGREGOR       CLEAR     72  52  49 SW7       29.82S
$$
MNZ071>073-080-081-089-090-097-098-030100-
   Southwest Minnesota

CITY           SKY/WX    TMP DP  RH WIND       PRES   REMARKS
MONTEVIDEO     PTCLDY    75  57  53 W6        29.86S
GRANITE FALLS  PTCLDY    73  56  56 S7        29.87F
CANBY          PTCLDY    75  54  48 S5        29.87S
MARSHALL       CLEAR     75  54  46 SW13      29.86F
REDWOOD FALLS  CLEAR     75  57  53 SW12      29.87F
OLIVIA         CLEAR     73  57  56 SW5       29.86S
PIPESTONE      CLEAR     72  55  56 SW8       29.91S
WINDOM         CLEAR     73  57  56 SW7       29.91F
WORTHINGTON    CLEAR     72  57  60 SW8       29.93F
JACKSON        CLEAR     72  54  53 SW6       29.92F
TRACY          CLEAR     74  56  53 SW9       29.89S
SLAYTON        CLEAR     72  55  55 CALM      29.92S
$$
MNZ065>067-074>077-082>085-091>093-030100-
   South Central Minnesota

CITY           SKY/WX    TMP DP  RH WIND       PRES   REMARKS
MANKATO        CLEAR     73  55  53 SW6       29.89F
NEW ULM        CLEAR     73  59  60 SW6       29.88F
ST JAMES       CLEAR     75  57  53 SW6       29.90F
FAIRMONT       CLEAR     73  55  53 SW7       29.91F
GLENCOE        CLEAR     73  56  54 S5        29.86F
FARIBAULT      CLEAR     75  54  46 CALM      29.89F
OWATONNA       CLEAR     72  57  60 SW5       29.90F
WASECA         CLEAR     72  54  53 SW5       29.91F
ALBERT LEA     CLEAR     73  57  56 W3        29.91F
$$
MNZ078>079-086>088-094>096-030100-
   Southeast Minnesota

CITY           SKY/WX    TMP DP  RH WIND       PRES   REMARKS
ROCHESTER      CLEAR     72  58  61 W7        29.92F
6HR MIN TEMP:  72; 6HR MAX TEMP:  76;

RED WING       CLEAR     75  54  46 W7        29.87S
STANTON        CLEAR     74  57  55 W3        29.88F
DODGE CENTER   CLEAR     72  61  68 W6        29.91F
WINONA         CLEAR     75  57  53 W3        29.89S
AUSTIN         CLEAR     73  55  53 W7        29.91F
PRESTON        CLEAR     71  62  74 CALM      29.92F
$$
ABBREVIATIONS USED IN REMARKS
   TC - TEMPERATURES IN CELSIUS
  WCI - WIND CHILL INDEX
   HX - HEAT INDEX
  VSB - VISIBILITY
$$



USA.gov is the U.S. government's official web portal to all federal, state and local government web resources and services.